Location: Newark
(52.8300°N, 8.0000°E)
Time: 22:34:18
(UTC+00:00)

STARLINK-1089 - Pass Details

Date: 31 January 2020
Orbit: 349 x 350 km, 53.0° (Epoch: 17 February)

Event Time Altitude Azimuth Distance (km) Brightness Sun altitude
Rises 17:00:23 0° 284° (WNW) 2,166 7.8 -7.8°
Reaches altitude 10° 17:02:28 10° 276° (W) 1,321 6.8 -8.1°
Maximum altitude 17:05:15 40° 205° (SSW) 534 4.0 -8.5°
Drops below altitude 10° 17:08:02 10° 133° (SE) 1,317 5.3 -8.9°
Enters shadow 17:09:33 - 127° (SE) 1,929 6.1 -9.1°
